KD2GO Weather Reports


time (UTC)temp
C
wind
direction
speed
KPH
gust
KPH
rain 1hr
cm
rain 24hr
cm
rain mn
cm
humidity
%
barometer
mb
20260509052958 12 25 0.0 3.2 0.00 0.03 0.00 66 1011.9
20260509050001 11 25 0.0 0.0 0.00 0.03 0.00 70 1012.7
20260509044500 11 25 0.0 3.2 0.00 0.03 0.00 69 1012.7
20260509041500 12 25 0.0 1.6 0.00 0.03 0.00 69 1012.6
20260509040005 11 25 0.0 3.2 0.00 0.03 0.00 70 1012.6
20260509034502 11 25 0.0 3.2 0.00 0.03 0.03 71 1012.6
20260509033002 11 25 0.0 0.0 0.00 0.03 0.03 69 1012.6
20260509031501 11 25 0.0 0.0 0.00 0.03 0.03 71 1012.6
20260509030002 11 25 0.0 0.0 0.00 0.03 0.03 71 1012.6
20260509024501 11 25 0.0 0.0 0.00 0.03 0.03 74 1012.6
20260509023001 11 25 0.0 0.0 0.00 0.03 0.03 74 1012.6
20260509021500 12 25 0.0 0.0 0.00 0.03 0.03 71 1012.6
20260509015959 12 25 0.0 0.0 0.00 0.03 0.03 69 1012.4
20260509014500 12 25 0.0 0.0 0.00 0.03 0.03 69 1012.2
20260509011459 12 25 0.0 0.0 0.00 0.03 0.03 68 1011.9
20260509010003 12 25 0.0 0.0 0.00 0.03 0.03 67 1011.6
20260509004501 12 25 0.0 0.0 0.00 0.03 0.03 66 1011.2
20260509003001 12 25 0.0 0.0 0.00 0.03 0.03 68 1011.1
20260509001501 12 25 0.0 3.2 0.00 0.03 0.03 65 1010.9
20260509000001 13 25 1.6 4.8 0.00 0.03 0.03 63 1010.7
20260508234500 13 281 1.6 3.2 0.00 0.03 0.03 64 1010.6
20260508233001 13 270 0.0 6.4 0.00 0.03 0.03 60 1010.6
20260508230002 13 296 1.6 4.8 0.00 0.03 0.03 58 1010.7
20260508224502 14 308 3.2 9.7 0.00 0.03 0.03 56 1010.7
20260508221502 14 283 6.4 14.5 0.00 0.03 0.03 53 1010.6
20260508214500 14 328 4.8 16.1 0.00 0.03 0.03 54 1010.7
20260508213001 15 268 6.4 16.1 0.00 0.03 0.03 53 1010.8
20260508211459 15 297 6.4 14.5 0.00 0.03 0.03 52 1010.6
20260508210002 15 281 6.4 12.9 0.00 0.03 0.03 55 1010.7
20260508204500 15 308 8.0 14.5 0.00 0.03 0.03 54 1010.8
20260508201500 14 280 8.0 20.9 0.00 0.03 0.03 55 1011.1
20260508200001 13 274 8.0 16.1 0.00 0.03 0.03 57 1011.2
20260508194500 13 290 6.4 17.7 0.00 0.03 0.03 55 1011.5
20260508193000 13 306 6.4 24.1 0.00 0.03 0.03 57 1011.3
20260508191500 13 281 6.4 19.3 0.00 0.03 0.03 60 1011.3
20260508190002 13 263 8.0 16.1 0.00 0.03 0.03 56 1011.5
20260508183000 15 299 8.0 16.1 0.00 0.03 0.03 48 1011.2
20260508180002 15 277 12.9 24.1 0.00 0.03 0.03 46 1011.2
20260508174500 14 280 11.3 25.7 0.00 0.03 0.03 48 1011.3
20260508173001 15 359 11.3 22.5 0.00 0.03 0.03 49 1011.5
20260508164459 13 272 9.7 19.3 0.00 0.03 0.03 53 1011.9
20260508160001 12 272 6.4 14.5 0.00 0.03 0.03 54 1012.5
20260508154500 11 319 8.0 12.9 0.00 0.03 0.03 54 1012.8
20260508151500 10 294 6.4 12.9 0.00 0.03 0.03 55 1013.3
20260508145959 10 288 6.4 17.7 0.00 0.03 0.03 54 1013.3
20260508144459 10 288 6.4 17.7 0.00 0.03 0.03 55 1013.2
20260508142959 10 254 6.4 11.3 0.00 0.03 0.03 57 1012.9
20260508141459 11 278 6.4 12.9 0.00 0.03 0.03 56 1013.0
20260508135959 10 285 6.4 12.9 0.00 0.03 0.03 58 1013.0
20260508134459 11 285 4.8 11.3 0.00 0.03 0.03 57 1013.0
20260508132958 10 309 4.8 12.9 0.00 0.03 0.03 61 1013.0
20260508131458 10 360 6.4 14.5 0.00 0.03 0.03 61 1013.0
20260508125959 9 276 6.4 12.9 0.00 0.03 0.03 65 1013.1
20260508124459 9 309 6.4 12.9 0.00 0.03 0.03 74 1013.1
20260508122958 8 289 3.2 9.7 0.00 0.03 0.03 77 1013.2
20260508121458 8 268 4.8 11.3 0.00 0.03 0.03 80 1012.9
20260508115959 7 282 4.8 11.3 0.00 0.03 0.03 84 1012.7
20260508114459 7 323 3.2 9.7 0.00 0.03 0.03 84 1012.8
20260508112959 6 279 4.8 11.3 0.00 0.03 0.03 79 1013.1
20260508111458 6 279 3.2 6.4 0.00 0.03 0.03 74 1012.8
20260508105959 5 297 3.2 6.4 0.00 0.03 0.03 69 1012.7
20260508104458 5 281 3.2 6.4 0.00 0.03 0.03 66 1012.5
20260508102957 5 317 1.6 4.8 0.00 0.03 0.03 69 1012.3
20260508101457 5 305 1.6 3.2 0.00 0.03 0.03 72 1012.2
20260508095958 4 305 1.6 4.8 0.00 0.03 0.03 73 1012.1
20260508094459 5 305 1.6 6.4 0.00 0.03 0.03 74 1012.0
20260508092959 4 318 0.0 1.6 0.00 0.03 0.03 79 1011.9
20260508091458 5 318 0.0 1.6 0.00 0.03 0.03 80 1011.8
20260508090000 5 318 0.0 1.6 0.00 0.03 0.03 83 1011.8
20260508084458 5 318 0.0 1.6 0.00 0.03 0.03 84 1011.8
20260508082958 5 318 0.0 0.0 0.00 0.03 0.03 85 1011.6
20260508081459 5 318 1.6 6.4 0.00 0.03 0.03 85 1011.4
20260508075957 6 274 1.6 6.4 0.00 0.03 0.03 85 1011.2
20260508072957 6 91 3.2 9.7 0.03 0.03 0.03 84 1010.6
20260508071458 7 89 4.8 11.3 0.03 0.03 0.03 84 1010.7
20260508070000 7 327 6.4 14.5 0.03 0.03 0.03 82 1011.3
20260508064458 8 161 6.4 16.1 0.00 0.13 0.00 79 1011.2
20260508062958 8 312 3.2 12.9 0.00 0.13 0.00 77 1010.9
20260508061458 8 172 4.8 11.3 0.00 0.13 0.00 77 1010.2
20260508055958 8 255 3.2 9.7 0.00 0.20 0.00 75 1010.2
20260508054457 8 81 4.8 12.9 0.00 0.20 0.00 74 1010.0